#timestamp,LO_Frequency,Hit,StdDev 
1594612815.4,286046982.0,N
1594612835.3,286046978.9,N
1594612855.1,286046979.6,N
1594612875.9,286046986.4,N
1594612895.7,286046985.6,N
1594612915.5,286046989.1,N
1594612935.4,286046991.6,N
1594612955.2,286046992.9,N
1594612975.0,286046996.2,N
1594612975.9,286046996.2,N
1594612995.8,286046997.9,N
1594613015.6,286046997.3,N
1594613035.4,286046996.6,N
1594613055.3,286046996.1,N
1594613075.1,286046994.6,N
1594613095.9,286046990.5,N
1594613115.7,286046992.4,N
1594613135.5,286046990.3,N
1594613155.4,286046993.1,N
1594613175.2,286046992.1,N
1594613195.0,286046994.4,N
1594613195.9,286046994.4,N
1594613215.8,286046989.6,N
1594613235.6,286046983.7,N
1594613255.5,286046986.3,N
1594613275.3,286046985.7,N
1594613295.1,286046986.6,N
1594613315.9,286046985.6,N
1594613335.7,286046984.8,N
1594613355.5,286046980.7,Y
1594613375.4,286046991.5,P
1594613395.2,286046992.7,P
1594613415.1,286046991.6,P
1594613416.0,286046991.6,Y
1594613435.8,286046998.3,P
1594613455.6,286046998.8,N
1594613475.5,286046994.6,N
1594613495.3,286046995.8,N
1594613515.2,286046995.3,N
1594613535.0,286046995.9,N
1594613535.9,286046995.9,N
1594613555.7,286046993.9,N
1594613575.6,286046995.8,N
1594613595.4,286046998.2,N
1594613615.3,286047004.8,N
1594613635.1,286047005.3,N
1594613636.0,286047005.3,N
1594613655.8,286047003.9,N
1594613675.7,286047002.8,N
1594613695.5,286047000.9,N
1594613715.3,286047001.7,N
1594613735.2,286047002.9,N
1594613755.0,286047002.5,N
1594613755.9,286047002.5,N
1594613775.8,286046997.0,N
1594613795.6,286046990.3,N
1594613815.4,286046983.0,Y
1594613835.3,286046979.3,P
1594613855.1,286046978.4,N
1594613875.8,286046972.7,N
1594613895.7,286046971.4,N
1594613915.5,286046972.3,N
1594613935.4,286046978.4,N
1594613955.2,286046979.0,N
1594613975.1,286046986.1,N
1594613976.0,286046986.1,N
1594613995.8,286046987.5,N
1594614015.6,286046990.2,N
1594614035.5,286046993.4,N
1594614055.3,286046994.0,N
1594614075.1,286046995.3,N
1594614095.9,286046999.3,N
1594614115.7,286047002.7,N
1594614135.6,286047003.6,N
1594614155.4,286047007.3,N
1594614175.2,286047008.6,N
1594614195.1,286047008.4,N
1594614196.0,286047008.4,N
1594614215.8,286047009.9,N
1594614235.6,286047013.5,N
1594614255.5,286047012.8,N
1594614275.3,286047015.3,N
1594614295.2,286047009.4,N
1594614315.9,286047009.2,N
1594614335.7,286047008.3,N
1594614355.6,286047011.4,N
1594614375.4,286047010.9,N
1594614395.2,286047013.6,N
1594614415.1,286047013.2,N
1594614416.0,286047013.2,N
1594614435.8,286047014.0,N
1594614455.7,286047014.8,N
1594614475.5,286047012.5,N
1594614495.3,286047011.2,N
1594614515.2,286047013.7,N
1594614535.0,286047013.7,N
1594614535.9,286047013.7,N
1594614555.7,286047010.5,N
1594614575.6,286047007.3,N
1594614595.4,286047007.2,N
1594614615.3,286047005.2,N
1594614635.1,286047003.2,N
1594614636.0,286047003.2,N
1594614655.8,286047006.7,N
1594614675.7,286047005.7,N
1594614695.5,286047002.6,N
1594614715.3,286047001.7,N
1594614735.2,286047004.2,N
1594614755.0,286047001.2,N
1594614755.9,286047001.2,N
1594614775.8,286047000.3,N
1594614795.6,286047002.5,N
1594614815.4,286047001.6,N
1594614835.3,286046996.5,N
1594614855.1,286046996.9,N
1594614875.8,286046994.7,N
1594614895.7,286046994.7,N
1594614915.5,286046997.4,N
1594614935.4,286047001.2,N
1594614955.2,286046998.9,N
1594614975.0,286046996.5,N
1594614975.9,286046996.5,N
1594614995.8,286046996.9,N
1594615015.6,286046999.1,N
1594615035.4,286046993.5,N
1594615055.3,286046992.4,N
1594615075.1,286046990.4,N
1594615095.9,286046989.1,N
1594615115.7,286046992.3,N
1594615135.5,286046991.7,N
1594615155.4,286046996.2,N
1594615175.2,286046995.7,N
1594615195.0,286046996.1,N
1594615195.9,286046996.1,N
1594615215.8,286046994.5,N
1594615235.6,286046990.6,N
1594615255.5,286046992.7,N
1594615275.3,286046992.6,N
1594615295.1,286046994.8,N
1594615315.9,286046989.2,Y
1594615335.7,286046997.7,P
1594615355.5,286046998.9,N
1594615375.4,286047001.9,N
1594615395.2,286047006.8,Y
1594615415.1,286047009.6,P
1594615416.0,286047009.6,N
1594615435.8,286047018.7,P
1594615455.6,286047024.3,Y
1594615475.5,286047012.2,P
1594615495.3,286047015.6,P
1594615515.1,286047017.5,P
1594615535.9,286047014.4,Y
1594615555.7,286047001.1,P
1594615575.6,286046995.5,N
1594615595.4,286046989.3,N
1594615615.2,286046990.0,N
1594615635.1,286046986.8,N
1594615636.0,286046986.8,N
1594615655.8,286046980.6,N
1594615675.6,286046979.2,N
1594615695.5,286046976.3,N
1594615715.3,286046976.5,N
1594615735.2,286046976.7,N
1594615755.0,286046975.2,N
1594615755.9,286046975.2,N
1594615775.7,286046974.8,N
1594615795.6,286046977.9,N
1594615815.4,286046976.9,N
1594615835.3,286046972.7,N
1594615855.1,286046966.1,Y
1594615856.0,286046966.1,P
1594615875.8,286046983.7,N
1594615895.7,286046983.1,N
1594615915.5,286046983.4,N
1594615935.3,286046982.3,N
1594615955.2,286046982.7,N
1594615975.0,286046982.7,N
1594615975.9,286046982.7,Y
1594615995.8,286047002.0,P
1594616015.6,286047003.7,N
1594616035.4,286047000.2,N
1594616055.3,286046998.1,N
1594616075.1,286046998.1,N
1594616095.9,286046997.6,N
1594616115.7,286046999.2,N
1594616135.5,286046999.3,N
1594616155.4,286046999.8,N
1594616175.2,286047003.3,N
1594616195.0,286047006.3,N
1594616196.0,286047006.3,N
1594616215.8,286047005.1,N
1594616235.6,286047001.7,N
1594616255.5,286046998.9,N
1594616275.3,286046998.3,N
1594616295.1,286047002.2,N
1594616315.9,286047002.6,N
1594616335.7,286047003.9,N
1594616355.5,286047001.6,N
1594616375.4,286047007.8,N
1594616395.2,286047009.6,N
